Location: Los Gatos B&B
(42.6926°N, 77.0646°W)
Time: 09:56:57
(UTC-04:00)

Cosmos 2263 Rocket - Visible Passes

Search period start: 23 April 2014 00:00
Search period end: 03 May 2014 00:00
Orbit: 823 x 850 km, 71.0° (Epoch: 22 April)

Date Brightness Start Highest point End Pass type
(mag) Time Alt. Az. Time Alt. Az. Time Alt. Az.
23 Apr 3.1 21:14:51 16° SE 21:17:51 25° ESE 21:22:21 10° NE visible
23 Apr 3.1 22:56:19 11° SW 23:01:27 47° WNW 23:06:53 10° NNE visible
24 Apr 3.2 20:56:59 10° SSE 21:01:17 23° E 21:05:37 10° NE visible
24 Apr 2.9 22:39:25 10° SW 22:44:49 51° WNW 22:50:19 10° NNE visible
25 Apr 3.3 20:40:37 10° SSE 20:44:44 22° E 20:48:52 10° NE visible
25 Apr 2.8 22:22:44 10° SW 22:28:12 55° WNW 22:33:44 10° NNE visible
26 Apr 5.2 00:12:19 10° NW 00:13:29 11° NW 00:14:40 10° NNW visible
26 Apr 5.2 05:32:48 10° N 05:35:58 15° NE 05:39:08 10° E visible
26 Apr 3.4 20:24:17 10° SE 20:28:11 20° E 20:32:06 10° NE visible
26 Apr 2.7 22:06:05 10° SW 22:11:35 60° WNW 22:17:10 10° NNE visible
26 Apr 5.2 23:55:01 10° WNW 23:56:47 11° NW 23:58:33 10° NNW visible
27 Apr 5.3 05:16:22 10° NNE 05:19:17 14° NE 05:22:10 10° ENE visible
27 Apr 2.6 21:49:26 10° SW 21:54:58 64° WNW 22:00:34 10° NNE visible
27 Apr 5.2 23:37:53 10° WNW 23:40:05 12° NW 23:42:18 10° NNW visible
28 Apr 5.4 04:59:59 10° NNE 05:02:35 13° NE 05:05:11 10° ENE visible
28 Apr 2.5 21:32:47 10° SSW 21:38:21 70° WNW 21:43:59 10° NNE visible
28 Apr 5.2 23:20:50 10° WNW 23:23:23 13° NW 23:25:57 10° NNW visible
29 Apr 5.5 04:43:38 10° NNE 04:45:53 12° NE 04:48:08 10° ENE visible
29 Apr 2.4 21:16:10 10° SSW 21:21:44 75° WNW 21:27:24 10° NNE visible
29 Apr 5.2 23:03:50 10° WNW 23:06:42 14° NW 23:09:34 10° NNW visible
30 Apr 5.6 04:27:22 10° NNE 04:29:12 11° NE 04:31:01 10° ENE visible
30 Apr 2.3 20:59:32 10° SSW 21:05:08 81° WNW 21:10:48 10° NNE visible
30 Apr 5.2 22:46:53 10° W 22:50:00 15° NW 22:53:09 10° N visible
01 May 5.7 04:11:14 10° NNE 04:12:29 11° NE 04:13:45 10° NE visible
01 May 2.3 20:42:56 10° SSW 20:48:31 87° WNW 20:54:12 10° NNE visible
01 May 5.2 22:29:57 10° W 22:33:19 16° NW 22:36:43 10° N visible
02 May 5.2 22:13:03 10° W 22:16:39 17° NW 22:20:16 10° N visible
